,,,PA_Meas_PMT16A,,PR_Meas_QMR101_102,,RH_Meas_QMH101,,SR_Meas_QMS101,,TA_Meas_QMH101,,GenWind,,GenWind,
date,time,status,PA,status,PR,status,RH,status,SR,status,TA,status,DirAvg,status,SpdAvg,
2009-01-24, 00:00:04,VALID,1003.72,VALID,0,VALID,85.8402,VALID,0,VALID,25.9038,VALID,15,VALID,0.765234,
2009-01-24, 00:01:04,VALID,1003.7,VALID,0,VALID,85.7791,VALID,0,VALID,25.9427,VALID,15,VALID,0.580859,
2009-01-24, 00:02:04,VALID,1003.67,VALID,0,VALID,85.6418,VALID,0,VALID,25.9018,VALID,12,VALID,0.245703,
2009-01-24, 00:03:04,VALID,1003.68,VALID,0,VALID,85.5655,VALID,0,VALID,25.9232,VALID,12,VALID,0.492578,
2009-01-24, 00:04:04,VALID,1003.66,VALID,0,VALID,85.4892,VALID,0,VALID,25.9817,VALID,50,VALID,0.848828,
2009-01-24, 00:05:04,VALID,1003.63,VALID,0,VALID,85.1307,VALID,0,VALID,26.0596,VALID,30,VALID,0.808984,
2009-01-24, 00:06:04,VALID,1003.66,VALID,0,VALID,84.8026,VALID,0,VALID,26.0985,VALID,43,VALID,0.406641,
2009-01-24, 00:07:04,VALID,1003.62,VALID,0,VALID,84.7569,VALID,0,VALID,26.118,VALID,21,VALID,1.18711,
2009-01-24, 00:08:04,VALID,1003.61,VALID,0,VALID,84.7263,VALID,0,VALID,26.118,VALID,38,VALID,0.349219,
2009-01-24, 00:09:04,VALID,1003.58,VALID,0,VALID,84.5127,VALID,0,VALID,26.118,VALID,12,VALID,1.22305,
2009-01-24, 00:10:04,VALID,1003.59,VALID,0,VALID,84.1008,VALID,0,VALID,26.2544,VALID,41,VALID,1.62656,
2009-01-24, 00:11:04,VALID,1003.58,VALID,0,VALID,83.7956,VALID,0,VALID,26.3128,VALID,7,VALID,0.78125,
2009-01-24, 00:12:04,VALID,1003.57,VALID,0,VALID,83.7498,VALID,0,VALID,26.3343,VALID,16,VALID,0.869531,
2009-01-24, 00:13:04,VALID,1003.6,VALID,0,VALID,83.7575,VALID,0,VALID,26.2739,VALID,22,VALID,0.620703,
2009-01-24, 00:14:04,VALID,1003.57,VALID,0,VALID,83.8033,VALID,0,VALID,26.2759,VALID,8,VALID,0.794922,
2009-01-24, 00:15:04,VALID,1003.57,VALID,0,VALID,83.8719,VALID,0,VALID,26.2739,VALID,37,VALID,0.494922,
2009-01-24, 00:16:04,VALID,1003.57,VALID,0,VALID,83.8261,VALID,0,VALID,26.2739,VALID,80,VALID,1.16875,
2009-01-24, 00:17:04,VALID,1003.58,VALID,0,VALID,83.8033,VALID,0,VALID,26.2933,VALID,68,VALID,0.705469,
2009-01-24, 00:18:04,VALID,1003.57,VALID,0,VALID,83.6964,VALID,0,VALID,26.3343,VALID,24,VALID,0.680469,
2009-01-24, 00:19:04,VALID,1003.56,VALID,0,VALID,83.727,VALID,0,VALID,26.3128,VALID,24,VALID,0.635938,
2009-01-24, 00:20:04,VALID,1003.57,VALID,0,VALID,83.7575,VALID,0,VALID,26.2933,VALID,33,VALID,0.621875,
2009-01-24, 00:21:04,VALID,1003.57,VALID,0,VALID,83.8795,VALID,0,VALID,26.2933,VALID,15,VALID,0.63125,
2009-01-24, 00:22:04,VALID,1003.56,VALID,0,VALID,83.9406,VALID,0.100563,VALID,26.2739,VALID,18,VALID,0.355078,
2009-01-24, 00:23:04,VALID,1003.57,VALID,0,VALID,83.8414,VALID,0,VALID,26.3148,VALID,23,VALID,1.04531,
2009-01-24, 00:24:04,VALID,1003.61,VALID,0,VALID,83.7575,VALID,0,VALID,26.3323,VALID,357,VALID,0.510547,
2009-01-24, 00:25:04,VALID,1003.59,VALID,0,VALID,83.6659,VALID,0,VALID,26.3323,VALID,37,VALID,1.13945,
2009-01-24, 00:26:04,VALID,1003.6,VALID,0,VALID,83.6354,VALID,0,VALID,26.3713,VALID,345,VALID,0.305859,
2009-01-24, 00:27:04,VALID,1003.6,VALID,0,VALID,83.4905,VALID,0,VALID,26.3303,VALID,72,VALID,0.991016,
2009-01-24, 00:28:04,VALID,1003.59,VALID,0,VALID,83.643,VALID,0,VALID,26.2544,VALID,58,VALID,0.435547,
2009-01-24, 00:29:04,VALID,1003.54,VALID,0,VALID,84.0931,VALID,0,VALID,26.1979,VALID,17,VALID,0.480469,
2009-01-24, 00:30:04,VALID,1003.55,VALID,0,VALID,84.5661,VALID,0,VALID,26.118,VALID,35,VALID,1.52734,
2009-01-24, 00:31:04,VALID,1003.56,VALID,0,VALID,84.7721,VALID,0,VALID,26.0791,VALID,15,VALID,0.808984,
2009-01-24, 00:32:04,VALID,1003.52,VALID,0,VALID,85.1383,VALID,0,VALID,25.9817,VALID,24,VALID,0.748438,
2009-01-24, 00:33:04,VALID,1003.52,VALID,0,VALID,85.5884,VALID,0,VALID,25.8843,VALID,20,VALID,0.552734,
2009-01-24, 00:34:04,VALID,1003.5,VALID,0,VALID,85.7791,VALID,0,VALID,25.9252,VALID,5,VALID,0.834375,
2009-01-24, 00:35:04,VALID,1003.51,VALID,0,VALID,85.5426,VALID,0,VALID,26.0012,VALID,37,VALID,0.636328,
2009-01-24, 00:36:04,VALID,1003.52,VALID,0,VALID,85.1536,VALID,0,VALID,26.0791,VALID,17,VALID,1.25156,
2009-01-24, 00:37:04,VALID,1003.49,VALID,0,VALID,84.8942,VALID,0,VALID,26.159,VALID,23,VALID,0.759375,
2009-01-24, 00:38:04,VALID,1003.5,VALID,0,VALID,84.7111,VALID,0.100563,VALID,26.157,VALID,9,VALID,1.11602,
2009-01-24, 00:39:04,VALID,1003.49,VALID,0,VALID,84.528,VALID,0,VALID,26.2154,VALID,19,VALID,0.271094,
2009-01-24, 00:40:04,VALID,1003.45,VALID,0,VALID,84.3754,VALID,0,VALID,26.2154,VALID,22,VALID,0.383984,
2009-01-24, 00:41:04,VALID,1003.43,VALID,0,VALID,84.4059,VALID,0,VALID,26.1959,VALID,22,VALID,0.333203,
2009-01-24, 00:42:04,VALID,1003.4,VALID,0,VALID,84.4441,VALID,0,VALID,26.1784,VALID,357,VALID,0.612109,
2009-01-24, 00:43:04,VALID,1003.38,VALID,0,VALID,84.5356,VALID,0,VALID,26.1765,VALID,29,VALID,2.17578,
2009-01-24, 00:44:04,VALID,1003.37,VALID,0,VALID,84.2839,VALID,0,VALID,26.2349,VALID,337,VALID,0.705078,
2009-01-24, 00:45:04,VALID,1003.36,VALID,0,VALID,84.2686,VALID,0,VALID,26.2759,VALID,44,VALID,0.785156,
2009-01-24, 00:46:04,VALID,1003.36,VALID,0,VALID,84.2991,VALID,0,VALID,26.2564,VALID,21,VALID,0.571484,
2009-01-24, 00:47:04,VALID,1003.4,VALID,0,VALID,84.3983,VALID,0,VALID,26.1959,VALID,38,VALID,0.891797,
2009-01-24, 00:48:04,VALID,1003.38,VALID,0,VALID,84.3144,VALID,0,VALID,26.2154,VALID,12,VALID,1.01719,
2009-01-24, 00:49:04,VALID,1003.36,VALID,0,VALID,84.1389,VALID,0,VALID,26.3343,VALID,6,VALID,0.522656,
2009-01-24, 00:50:04,VALID,1003.39,VALID,0,VALID,83.9482,VALID,0,VALID,26.3323,VALID,16,VALID,1.01055,
2009-01-24, 00:51:04,VALID,1003.37,VALID,0,VALID,83.8185,VALID,0,VALID,26.3518,VALID,21,VALID,0.374609,
2009-01-24, 00:52:04,VALID,1003.35,VALID,0,VALID,83.9253,VALID,0,VALID,26.2739,VALID,10,VALID,0.817578,
2009-01-24, 00:53:04,VALID,1003.34,VALID,0,VALID,84.3602,VALID,0,VALID,26.1745,VALID,4,VALID,1.1668,
2009-01-24, 00:54:04,VALID,1003.33,VALID,0,VALID,84.1847,VALID,0,VALID,26.2933,VALID,30,VALID,0.778516,
2009-01-24, 00:55:04,VALID,1003.3,VALID,0,VALID,84.0016,VALID,0,VALID,26.3128,VALID,18,VALID,0.544141,
2009-01-24, 00:56:04,VALID,1003.27,VALID,0,VALID,84.0321,VALID,0,VALID,26.3128,VALID,28,VALID,1.17578,
2009-01-24, 00:57:04,VALID,1003.26,VALID,0,VALID,83.9635,VALID,0,VALID,26.2913,VALID,356,VALID,1.04219,
2009-01-24, 00:58:04,VALID,1003.23,VALID,0,VALID,83.8948,VALID,0,VALID,26.3323,VALID,11,VALID,0.897266,
2009-01-24, 00:59:04,VALID,1003.23,VALID,0,VALID,83.9558,VALID,0,VALID,26.3323,VALID,35,VALID,0.685156,
2009-01-24, 01:00:04,VALID,1003.22,VALID,0,VALID,84.0397,VALID,0,VALID,26.2933,VALID,6,VALID,0.435547,
2009-01-24, 01:01:04,VALID,1003.21,VALID,0,VALID,84.2686,VALID,0,VALID,26.2349,VALID,17,VALID,0.547656,
2009-01-24, 01:02:04,VALID,1003.22,VALID,0,VALID,84.4899,VALID,0,VALID,26.1959,VALID,28,VALID,0.912891,
2009-01-24, 01:03:04,VALID,1003.18,VALID,0,VALID,84.6806,VALID,0,VALID,26.1375,VALID,22,VALID,0.739844,
2009-01-24, 01:04:04,VALID,1003.21,VALID,0,VALID,84.7797,VALID,0,VALID,26.1765,VALID,43,VALID,0.584766,
2009-01-24, 01:05:04,VALID,1003.17,VALID,0,VALID,84.6195,VALID,0,VALID,26.157,VALID,43,VALID,0.410156,
2009-01-24, 01:06:04,VALID,1003.17,VALID,0,VALID,84.6348,VALID,0,VALID,26.0966,VALID,43,VALID,0,
2009-01-24, 01:07:04,VALID,1003.15,VALID,0,VALID,84.8332,VALID,0,VALID,26.0401,VALID,43,VALID,0,
2009-01-24, 01:08:04,VALID,1003.15,VALID,0,VALID,85.1536,VALID,0,VALID,26.0226,VALID,42,VALID,0.481641,
2009-01-24, 01:09:04,VALID,1003.14,VALID,0,VALID,85.268,VALID,0,VALID,25.9622,VALID,41,VALID,0.235938,
2009-01-24, 01:10:04,VALID,1003.14,VALID,0,VALID,85.3977,VALID,0,VALID,25.9038,VALID,41,VALID,0.330469,
2009-01-24, 01:11:04,VALID,1003.13,VALID,0,VALID,85.7334,VALID,0,VALID,25.7674,VALID,41,VALID,0.105078,
2009-01-24, 01:12:04,VALID,1003.09,VALID,0,VALID,86.2598,VALID,0,VALID,25.67,VALID,41,VALID,0.284766,
2009-01-24, 01:13:04,VALID,1003.11,VALID,0,VALID,86.5344,VALID,0,VALID,25.5921,VALID,39,VALID,0.570703,
2009-01-24, 01:14:04,VALID,1003.12,VALID,0,VALID,86.8701,VALID,0,VALID,25.4753,VALID,35,VALID,0.253906,
2009-01-24, 01:15:04,VALID,1003.08,VALID,0,VALID,87.3583,VALID,0,VALID,25.3779,VALID,35,VALID,0.0269531,
2009-01-24, 01:16:04,VALID,1003.09,VALID,0,VALID,87.8313,VALID,0,VALID,25.3195,VALID,35,VALID,0.331641,
2009-01-24, 01:17:04,VALID,1003.07,VALID,0,VALID,88.0602,VALID,0,VALID,25.2416,VALID,36,VALID,0.194922,
2009-01-24, 01:18:04,VALID,1003.03,VALID,0,VALID,88.4035,VALID,0,VALID,25.1832,VALID,36,VALID,0.501562,
2009-01-24, 01:19:04,VALID,1003.02,VALID,0,VALID,88.8307,VALID,0,VALID,25.1832,VALID,35,VALID,0.558594,
2009-01-24, 01:20:04,VALID,1003.01,VALID,0,VALID,88.7162,VALID,0,VALID,25.1461,VALID,35,VALID,0.392578,
2009-01-24, 01:21:04,VALID,1003,VALID,0,VALID,88.9527,VALID,0,VALID,25.0469,VALID,35,VALID,0.261328,
2009-01-24, 01:22:04,VALID,1002.97,VALID,0,VALID,89.174,VALID,0,VALID,25.0079,VALID,35,VALID,0.239063,
2009-01-24, 01:23:04,VALID,1002.94,VALID,0,VALID,89.4105,VALID,0,VALID,24.9495,VALID,35,VALID,0.251172,
2009-01-24, 01:24:04,VALID,1002.96,VALID,0,VALID,89.647,VALID,0,VALID,24.9106,VALID,35,VALID,0.304297,
2009-01-24, 01:25:04,VALID,1002.96,VALID,0,VALID,90.1276,VALID,0,VALID,24.93,VALID,35,VALID,0.337891,
2009-01-24, 01:26:04,VALID,1002.96,VALID,0,VALID,90.2115,VALID,0,VALID,24.9885,VALID,46,VALID,0.455469,
2009-01-24, 01:27:04,VALID,1002.95,VALID,0,VALID,89.7538,VALID,0,VALID,24.969,VALID,59,VALID,0.408984,
2009-01-24, 01:28:04,VALID,1002.94,VALID,0,VALID,89.9064,VALID,0,VALID,24.93,VALID,55,VALID,0.482422,
2009-01-24, 01:29:04,VALID,1002.97,VALID,0,VALID,90.0284,VALID,0,VALID,24.8716,VALID,55,VALID,0.384766,
2009-01-24, 01:30:04,VALID,1002.95,VALID,0,VALID,90.1276,VALID,0,VALID,24.8522,VALID,55,VALID,0.239063,
2009-01-24, 01:31:04,VALID,1002.95,VALID,0,VALID,90.2649,VALID,0,VALID,24.7937,VALID,55,VALID,0.328125,
2009-01-24, 01:32:04,VALID,1002.98,VALID,0,VALID,90.4022,VALID,0,VALID,24.7937,VALID,55,VALID,0.242188,
2009-01-24, 01:33:04,VALID,1002.97,VALID,0,VALID,90.4709,VALID,0,VALID,24.7353,VALID,55,VALID,0.312109,
2009-01-24, 01:34:04,VALID,1003.02,VALID,0,VALID,90.593,VALID,0,VALID,24.7353,VALID,55,VALID,0,
2009-01-24, 01:35:04,VALID,1003.01,VALID,0,VALID,90.654,VALID,0,VALID,24.6964,VALID,55,VALID,0.0523437,
2009-01-24, 01:36:04,VALID,1002.97,VALID,0,VALID,90.8066,VALID,0,VALID,24.6788,VALID,55,VALID,0.278516,
2009-01-24, 01:37:04,VALID,1002.97,VALID,0,VALID,91.0278,VALID,0,VALID,24.6574,VALID,40,VALID,0.315234,
2009-01-24, 01:38:04,VALID,1003.01,VALID,0,VALID,91.2033,VALID,0,VALID,24.6574,VALID,40,VALID,0.361719,
2009-01-24, 01:39:04,VALID,1003.01,VALID,0,VALID,91.2033,VALID,0,VALID,24.6556,VALID,40,VALID,0.188281,
2009-01-24, 01:40:04,VALID,1002.99,VALID,0,VALID,91.2262,VALID,0,VALID,24.6964,VALID,40,VALID,0.216406,
2009-01-24, 01:41:04,VALID,1003.01,VALID,0,VALID,91.1651,VALID,0,VALID,24.6964,VALID,40,VALID,0.05625,
2009-01-24, 01:42:04,VALID,1003,VALID,0,VALID,91.1422,VALID,0,VALID,24.6964,VALID,40,VALID,0.294531,
2009-01-24, 01:43:04,VALID,1003.02,VALID,0,VALID,91.0888,VALID,0,VALID,24.6361,VALID,40,VALID,0,
2009-01-24, 01:44:04,VALID,1003.04,VALID,0,VALID,91.2185,VALID,0,VALID,24.6769,VALID,40,VALID,0,
2009-01-24, 01:45:04,VALID,1003,VALID,0,VALID,91.4092,VALID,0,VALID,24.7159,VALID,40,VALID,0.21875,
2009-01-24, 01:46:04,VALID,1003.02,VALID,0,VALID,91.2948,VALID,0,VALID,24.7548,VALID,40,VALID,0,
2009-01-24, 01:47:04,VALID,1003.01,VALID,0,VALID,91.2338,VALID,0,VALID,24.7548,VALID,40,VALID,0,
2009-01-24, 01:48:04,VALID,1003.01,VALID,0,VALID,91.1651,VALID,0,VALID,24.7743,VALID,40,VALID,0,
2009-01-24, 01:49:04,VALID,1003,VALID,0,VALID,91.0965,VALID,0,VALID,24.7743,VALID,40,VALID,0,
2009-01-24, 01:50:04,VALID,1003.01,VALID,0,VALID,91.127,VALID,0,VALID,24.7743,VALID,40,VALID,0,
2009-01-24, 01:51:04,VALID,1003.05,VALID,0,VALID,91.1422,VALID,0,VALID,24.7743,VALID,40,VALID,0,
2009-01-24, 01:52:04,VALID,1003.07,VALID,0,VALID,91.2109,VALID,0,VALID,24.7937,VALID,33,VALID,0,
2009-01-24, 01:53:04,VALID,1003.07,VALID,0,VALID,90.8829,VALID,0,VALID,24.7724,VALID,33,VALID,0,
2009-01-24, 01:54:04,VALID,1003.08,VALID,0,VALID,90.8676,VALID,0,VALID,24.7743,VALID,45,VALID,0,
2009-01-24, 01:55:04,VALID,1003.08,VALID,0,VALID,90.8676,VALID,0,VALID,24.7548,VALID,45,VALID,0,
2009-01-24, 01:56:04,VALID,1003.1,VALID,0,VALID,90.9515,VALID,0.100563,VALID,24.7353,VALID,45,VALID,0,
2009-01-24, 01:57:04,VALID,1003.06,VALID,0,VALID,91.0202,VALID,0,VALID,24.675,VALID,45,VALID,0,
2009-01-24, 01:58:04,VALID,1003.08,VALID,0,VALID,91.127,VALID,0.100563,VALID,24.675,VALID,45,VALID,0,
2009-01-24, 01:59:04,VALID,1003.09,VALID,0,VALID,91.3101,VALID,0,VALID,24.6964,VALID,40,VALID,0.557813,
2009-01-24, 02:00:04,VALID,1003.1,VALID,0,VALID,91.3558,VALID,0.100563,VALID,24.6361,VALID,40,VALID,0.436328,
2009-01-24, 02:01:04,VALID,1003.11,VALID,0,VALID,91.2262,VALID,0.100563,VALID,24.599,VALID,40,VALID,0.556641,
2009-01-24, 02:02:04,VALID,1003.1,VALID,0,VALID,91.3635,VALID,0.100563,VALID,24.5388,VALID,40,VALID,0.377734,
2009-01-24, 02:03:04,VALID,1003.07,VALID,0,VALID,91.455,VALID,0,VALID,24.5406,VALID,40,VALID,0.379687,
2009-01-24, 02:04:04,VALID,1003.07,VALID,0,VALID,91.5237,VALID,0,VALID,24.4804,VALID,40,VALID,0.327734,
2009-01-24, 02:05:04,VALID,1003.06,VALID,0,VALID,91.6305,VALID,0,VALID,24.4609,VALID,40,VALID,0.00585938,
2009-01-24, 02:06:04,VALID,1003.05,VALID,0,VALID,91.7144,VALID,0.100563,VALID,24.4609,VALID,40,VALID,0.323438,
2009-01-24, 02:07:04,VALID,1003.02,VALID,0,VALID,91.7449,VALID,0.100563,VALID,24.4628,VALID,40,VALID,0.00117188,
2009-01-24, 02:08:04,VALID,1003.01,VALID,0,VALID,91.9051,VALID,0,VALID,24.4628,VALID,40,VALID,0.270312,
2009-01-24, 02:09:04,VALID,1002.97,VALID,0,VALID,91.9051,VALID,0.100563,VALID,24.422,VALID,40,VALID,0.2875,
2009-01-24, 02:10:04,VALID,1002.97,VALID,0,VALID,92.0272,VALID,0.100563,VALID,24.4414,VALID,40,VALID,0.625781,
2009-01-24, 02:11:04,VALID,1003,VALID,0,VALID,91.9662,VALID,0,VALID,24.4433,VALID,40,VALID,0.425,
2009-01-24, 02:12:04,VALID,1003.01,VALID,0,VALID,91.9662,VALID,0.100563,VALID,24.4025,VALID,40,VALID,0.567187,
2009-01-24, 02:13:04,VALID,1002.97,VALID,0,VALID,91.9738,VALID,0,VALID,24.383,VALID,40,VALID,0.514844,
2009-01-24, 02:14:04,VALID,1002.94,VALID,0,VALID,92.0501,VALID,0.100563,VALID,24.3849,VALID,40,VALID,0.399219,
2009-01-24, 02:15:04,VALID,1002.93,VALID,0,VALID,92.3018,VALID,0.100563,VALID,24.3636,VALID,37,VALID,0.404687,
2009-01-24, 02:16:04,VALID,1002.88,VALID,0,VALID,92.3095,VALID,0.100563,VALID,24.383,VALID,37,VALID,0.140234,
2009-01-24, 02:17:04,VALID,1002.86,VALID,0,VALID,92.2637,VALID,0.100563,VALID,24.383,VALID,37,VALID,0,
2009-01-24, 02:18:04,VALID,1002.84,VALID,0,VALID,92.3629,VALID,0,VALID,24.383,VALID,36,VALID,0.229297,
2009-01-24, 02:19:04,VALID,1002.82,VALID,0,VALID,92.3781,VALID,0,VALID,24.383,VALID,36,VALID,0,
2009-01-24, 02:20:04,VALID,1002.85,VALID,0,VALID,92.401,VALID,0.100563,VALID,24.4025,VALID,36,VALID,0,
2009-01-24, 02:21:04,VALID,1002.81,VALID,0,VALID,92.401,VALID,0.100563,VALID,24.3812,VALID,36,VALID,0,
2009-01-24, 02:22:04,VALID,1002.8,VALID,0,VALID,92.4849,VALID,0.100563,VALID,24.4025,VALID,61,VALID,0.485547,
2009-01-24, 02:23:04,VALID,1002.76,VALID,0,VALID,92.546,VALID,0.100563,VALID,24.4414,VALID,60,VALID,0.449609,
2009-01-24, 02:24:04,VALID,1002.76,VALID,0,VALID,92.4925,VALID,0.100563,VALID,24.4609,VALID,60,VALID,0.0796875,
2009-01-24, 02:25:04,VALID,1002.78,VALID,0,VALID,92.4239,VALID,0.100563,VALID,24.4628,VALID,60,VALID,0.298828,
2009-01-24, 02:26:04,VALID,1002.77,VALID,0,VALID,92.4391,VALID,0,VALID,24.4414,VALID,60,VALID,0.295703,
2009-01-24, 02:27:04,VALID,1002.73,VALID,0,VALID,92.3171,VALID,0,VALID,24.422,VALID,60,VALID,0.414453,
2009-01-24, 02:28:04,VALID,1002.75,VALID,0,VALID,92.3171,VALID,0.100563,VALID,24.422,VALID,60,VALID,0.494922,
2009-01-24, 02:29:04,VALID,1002.75,VALID,0,VALID,92.3552,VALID,0.100563,VALID,24.4025,VALID,59,VALID,0.469141,
2009-01-24, 02:30:04,VALID,1002.78,VALID,0,VALID,92.4163,VALID,0,VALID,24.383,VALID,42,VALID,0.647266,
2009-01-24, 02:31:04,VALID,1002.76,VALID,0,VALID,92.5841,VALID,0.100563,VALID,24.4025,VALID,29,VALID,0.497656,
2009-01-24, 02:32:04,VALID,1002.79,VALID,0,VALID,92.5765,VALID,0,VALID,24.4433,VALID,29,VALID,0.21875,
2009-01-24, 02:33:04,VALID,1002.78,VALID,0,VALID,92.607,VALID,0,VALID,24.4414,VALID,29,VALID,0.117969,
2009-01-24, 02:34:04,VALID,1002.78,VALID,0,VALID,92.5993,VALID,0,VALID,24.5017,VALID,29,VALID,0.115234,
2009-01-24, 02:35:04,VALID,1002.77,VALID,0,VALID,92.5841,VALID,0,VALID,24.5193,VALID,29,VALID,0.278516,
2009-01-24, 02:36:04,VALID,1002.76,VALID,0,VALID,92.5231,VALID,0,VALID,24.5796,VALID,29,VALID,0.225781,
2009-01-24, 02:37:04,VALID,1002.72,VALID,0,VALID,92.3552,VALID,0,VALID,24.599,VALID,29,VALID,0.0546875,
2009-01-24, 02:38:04,VALID,1002.69,VALID,0,VALID,92.2866,VALID,0.100563,VALID,24.5972,VALID,30,VALID,0.328516,
2009-01-24, 02:39:04,VALID,1002.63,VALID,0,VALID,92.2408,VALID,0.100563,VALID,24.6556,VALID,31,VALID,0.133984,
2009-01-24, 02:40:04,VALID,1002.62,VALID,0,VALID,92.2866,VALID,0,VALID,24.6945,VALID,24,VALID,0.0832031,
2009-01-24, 02:41:04,VALID,1002.58,VALID,0,VALID,92.195,VALID,0,VALID,24.7743,VALID,24,VALID,0.289453,
2009-01-24, 02:42:04,VALID,1002.57,VALID,0,VALID,91.9128,VALID,0,VALID,24.7743,VALID,24,VALID,0.299219,
2009-01-24, 02:43:04,VALID,1002.58,VALID,0,VALID,91.7144,VALID,0,VALID,24.8132,VALID,24,VALID,0,
2009-01-24, 02:44:04,VALID,1002.63,VALID,0,VALID,91.6763,VALID,0,VALID,24.8151,VALID,24,VALID,0.289844,
2009-01-24, 02:45:04,VALID,1002.67,VALID,0,VALID,91.6381,VALID,0,VALID,24.8132,VALID,24,VALID,0.282813,
2009-01-24, 02:46:04,VALID,1002.69,VALID,0,VALID,91.6763,VALID,0,VALID,24.8327,VALID,54,VALID,0.335156,
2009-01-24, 02:47:04,VALID,1002.73,VALID,0,VALID,91.6457,VALID,0,VALID,24.8113,VALID,54,VALID,0.365234,
2009-01-24, 02:48:04,VALID,1002.74,VALID,0,VALID,91.5084,VALID,0,VALID,24.8327,VALID,54,VALID,0.335547,
2009-01-24, 02:49:04,VALID,1002.75,VALID,0,VALID,91.5008,VALID,0,VALID,24.8132,VALID,54,VALID,0.0046875,
2009-01-24, 02:50:04,VALID,1002.78,VALID,0,VALID,91.4932,VALID,0,VALID,24.7724,VALID,54,VALID,0.343359,
2009-01-24, 02:51:04,VALID,1002.82,VALID,0,VALID,91.5466,VALID,0,VALID,24.7548,VALID,54,VALID,0.246094,
2009-01-24, 02:52:04,VALID,1002.83,VALID,0,VALID,91.5923,VALID,0,VALID,24.7335,VALID,54,VALID,0.339063,
2009-01-24, 02:53:04,VALID,1002.82,VALID,0,VALID,91.7525,VALID,0,VALID,24.7335,VALID,54,VALID,0.298828,
2009-01-24, 02:54:04,VALID,1002.87,VALID,0,VALID,91.8365,VALID,0,VALID,24.7529,VALID,54,VALID,0.325391,
2009-01-24, 02:55:04,VALID,1002.88,VALID,0,VALID,91.9433,VALID,0,VALID,24.7743,VALID,54,VALID,0,
2009-01-24, 02:56:04,VALID,1002.87,VALID,0,VALID,92.0577,VALID,0.100563,VALID,24.7529,VALID,54,VALID,0.361719,
2009-01-24, 02:57:04,VALID,1002.85,VALID,0,VALID,92.1416,VALID,0,VALID,24.7724,VALID,36,VALID,0.620703,
2009-01-24, 02:58:04,VALID,1002.84,VALID,0,VALID,92.3476,VALID,0,VALID,24.8132,VALID,33,VALID,0.364453,
2009-01-24, 02:59:04,VALID,1002.82,VALID,0,VALID,92.4925,VALID,0,VALID,24.8113,VALID,33,VALID,0.315234,
2009-01-24, 03:00:04,VALID,1002.83,VALID,0,VALID,92.4544,VALID,0,VALID,24.8308,VALID,30,VALID,0.585938,
2009-01-24, 03:01:04,VALID,1002.85,VALID,0,VALID,92.4544,VALID,0,VALID,24.8113,VALID,27,VALID,0.464844,
2009-01-24, 03:02:04,VALID,1002.84,VALID,0,VALID,92.5307,VALID,0,VALID,24.7919,VALID,14,VALID,0.379687,
2009-01-24, 03:03:04,VALID,1002.83,VALID,0,VALID,92.5917,VALID,0,VALID,24.7724,VALID,13,VALID,0.557422,
2009-01-24, 03:04:04,VALID,1002.86,VALID,0,VALID,92.7062,VALID,0,VALID,24.7743,VALID,13,VALID,0.205078,
2009-01-24, 03:05:04,VALID,1002.85,VALID,0,VALID,92.813,VALID,0,VALID,24.7529,VALID,12,VALID,0.107422,
2009-01-24, 03:06:04,VALID,1002.85,VALID,0,VALID,92.7519,VALID,0,VALID,24.7937,VALID,12,VALID,0,
2009-01-24, 03:07:04,VALID,1002.84,VALID,0,VALID,92.6909,VALID,0,VALID,24.7529,VALID,12,VALID,0,
2009-01-24, 03:08:04,VALID,1002.85,VALID,0,VALID,92.6985,VALID,0,VALID,24.714,VALID,12,VALID,0,
2009-01-24, 03:09:04,VALID,1002.87,VALID,0,VALID,92.7901,VALID,0,VALID,24.714,VALID,45,VALID,0.466406,
2009-01-24, 03:10:04,VALID,1002.83,VALID,0,VALID,92.7596,VALID,0,VALID,24.6964,VALID,45,VALID,0.178906,
2009-01-24, 03:11:04,VALID,1002.81,VALID,0,VALID,92.7672,VALID,0,VALID,24.6556,VALID,45,VALID,0.569141,
2009-01-24, 03:12:04,VALID,1002.75,VALID,0,VALID,92.8053,VALID,0,VALID,24.6166,VALID,44,VALID,0.426562,
2009-01-24, 03:13:04,VALID,1002.7,VALID,0,VALID,92.9274,VALID,0.100563,VALID,24.6166,VALID,40,VALID,0.636328,
2009-01-24, 03:14:04,VALID,1002.69,VALID,0,VALID,93.0266,VALID,0,VALID,24.599,VALID,33,VALID,0.405078,
2009-01-24, 03:15:04,VALID,1002.68,VALID,0,VALID,93.1029,VALID,0.100563,VALID,24.6166,VALID,33,VALID,0.573438,
2009-01-24, 03:16:04,VALID,1002.7,VALID,0,VALID,93.141,VALID,0,VALID,24.6185,VALID,33,VALID,0.597656,
2009-01-24, 03:17:04,VALID,1002.68,VALID,0,VALID,93.1944,VALID,0,VALID,24.5972,VALID,33,VALID,0.307422,
2009-01-24, 03:18:04,VALID,1002.72,VALID,0,VALID,93.2173,VALID,0,VALID,24.5796,VALID,33,VALID,0.0960938,
2009-01-24, 03:19:04,VALID,1002.74,VALID,0,VALID,93.2936,VALID,0,VALID,24.6185,VALID,46,VALID,0.417969,
2009-01-24, 03:20:04,VALID,1002.77,VALID,0,VALID,93.3622,VALID,0,VALID,24.5972,VALID,75,VALID,0.553125,
2009-01-24, 03:21:04,VALID,1002.77,VALID,0,VALID,93.3622,VALID,0,VALID,24.6166,VALID,76,VALID,0.328125,
2009-01-24, 03:22:04,VALID,1002.77,VALID,0,VALID,93.3851,VALID,0,VALID,24.6361,VALID,76,VALID,0.173828,
2009-01-24, 03:23:04,VALID,1002.79,VALID,0,VALID,93.408,VALID,0,VALID,24.6556,VALID,76,VALID,0.0667969,
2009-01-24, 03:24:04,VALID,1002.81,VALID,0,VALID,93.3241,VALID,0,VALID,24.675,VALID,76,VALID,0.223828,
2009-01-24, 03:25:04,VALID,1002.87,VALID,0,VALID,93.3394,VALID,0,VALID,24.7353,VALID,76,VALID,0.342187,
2009-01-24, 03:26:04,VALID,1002.86,VALID,0,VALID,93.2783,VALID,0,VALID,24.7548,VALID,76,VALID,0.358594,
2009-01-24, 03:27:04,VALID,1002.92,VALID,0,VALID,93.2097,VALID,0,VALID,24.7335,VALID,75,VALID,0.403125,
2009-01-24, 03:28:04,VALID,1002.94,VALID,0,VALID,93.141,VALID,0,VALID,24.7353,VALID,74,VALID,0.503125,
2009-01-24, 03:29:04,VALID,1002.98,VALID,0,VALID,93.1181,VALID,0,VALID,24.7353,VALID,78,VALID,0.665234,
2009-01-24, 03:30:04,VALID,1003.03,VALID,0,VALID,93.1486,VALID,0,VALID,24.6964,VALID,79,VALID,0.676953,
2009-01-24, 03:31:04,VALID,1003.07,VALID,0,VALID,93.202,VALID,0,VALID,24.6945,VALID,87,VALID,0.665234,
2009-01-24, 03:32:04,VALID,1003.18,VALID,0,VALID,93.2554,VALID,0,VALID,24.7353,VALID,92,VALID,0.849219,
2009-01-24, 03:33:04,VALID,1003.22,VALID,0,VALID,93.2859,VALID,0,VALID,24.7724,VALID,94,VALID,0.870703,
2009-01-24, 03:34:04,VALID,1003.27,VALID,0.5,VALID,93.2249,VALID,0,VALID,24.8113,VALID,100,VALID,1.63125,
2009-01-24, 03:35:04,VALID,1003.29,VALID,0,VALID,93.08,VALID,0,VALID,24.8522,VALID,83,VALID,1.97148,
2009-01-24, 03:36:04,VALID,1003.36,VALID,0.5,VALID,92.9961,VALID,0,VALID,24.8522,VALID,80,VALID,0.841016,
2009-01-24, 03:37:04,VALID,1003.36,VALID,0.5,VALID,92.9961,VALID,0,VALID,24.7919,VALID,58,VALID,1.35586,
2009-01-24, 03:38:04,VALID,1003.43,VALID,0,VALID,93.0495,VALID,0,VALID,24.7724,VALID,65,VALID,1.46563,
2009-01-24, 03:39:04,VALID,1003.4,VALID,0,VALID,92.9121,VALID,0,VALID,24.7548,VALID,72,VALID,0.975781,
2009-01-24, 03:40:04,VALID,1003.39,VALID,0,VALID,92.7824,VALID,0,VALID,24.675,VALID,81,VALID,2.01484,
2009-01-24, 03:41:04,VALID,1003.47,VALID,0,VALID,92.8435,VALID,0,VALID,24.6964,VALID,95,VALID,1.32305,
2009-01-24, 03:42:04,VALID,1003.48,VALID,0,VALID,92.935,VALID,0,VALID,24.6769,VALID,70,VALID,1.16992,
2009-01-24, 03:43:04,VALID,1003.51,VALID,0,VALID,92.9045,VALID,0,VALID,24.6769,VALID,80,VALID,2.61562,
2009-01-24, 03:44:04,VALID,1003.52,VALID,0,VALID,92.8664,VALID,0,VALID,24.6361,VALID,102,VALID,1.46953,
2009-01-24, 03:45:04,VALID,1003.56,VALID,0,VALID,92.7519,VALID,0,VALID,24.6574,VALID,96,VALID,2.03242,
2009-01-24, 03:46:04,VALID,1003.5,VALID,0,VALID,92.7138,VALID,0,VALID,24.6574,VALID,117,VALID,1.63828,